Погода в Ключи

Погода в Ключи : погода сейчас, прогноз погоды и архив. Всё, что Вы хотите узнать о погоде в Ключи!

Поиск расширенной информации на нашем сайте:

Другие новости

Новости СМИ2

Главная страница сайта

Новости сайта

02.10.2013

Напоминаем, что на нашем новом сайте вы можете получить высокодетализированные прогнозы погоды по пунктам России, СНГ и мира (включающие важные для авиации метеовеличины, такие как направление и скорость ветра, видимость, явления погоды, количество и форма облачности, нижняя и верхняя граница облачности), а также ознакомиться с разнообразными материалами по авиационной метеорологии и подборкой полезных ссылок на эту тему.

Сайт Метеоцентр.Азия посвящён разработке технологий оптимизации авиаметеорологического обслуживания, включая проектирование и перспективное создание нескольких автоматизированных авиаметеорологических систем:
- система выпуска высокодетальных прогностических карт явлений погоды для нижнего воздушного пространства по России и ближнему зарубежью;
- система верификации прогнозов TAF (выпускаемых синоптиками официальных АМСГ РФ и ближнего зарубежья) и AUTOTAF (выпускаемых сайтом Метеоцентр.Азия) - выявление ошибок, онлайн-сопоставление с фактической погодой METAR, автоматическое внесение коррективов в прогнозы при резком отклонении фактической погоды от прогноза, подсчёт оправдываемости прогнозов по элементам и в целом;
- система обработки, анализа и отображения авиаметеорологической информации для применения провайдерами метеорологической информации.

Рекомендуем: 24 И 48 форма Ян-ши тайдзицюань.

Погода в Ключи - сегодня

Время (UTC), дата Ветер
(°,м/с) 
Видим.   Явления Облачность Т
(°С)
Тd
(°С)
f(%) Тe
(°С)
Pmin
(гПа)
dP
(гПа)
Po
(мм)
O2
(г/м3)
Тmin Tmax R s Состояние
почвы
18 19.06.17 310 (СЗ) 20000 м    4/0 верхняя 
[Ci sp]
+20.5 +9.5 49 +21  1007.6  0.8  743  277           
21 19.06.17 320 (СЗ) 20000 м    9/0 средняя, верхняя 
[Ac und|Ci sp]
+19 +10.2 57 +22  1007.6  -0.1  743  278           
00 20.06.17 040 (СВ) 20000 м  {ливн. осадки}  9/3 600 м кучево-дожд., средняя, верхняя 
[Cb cap|Ac und|Ci sp]
+18.9 +14.6 76 +28  1007.4  -0.2  743  277  +18.4    0.0    сухая 
03 20.06.17 050 (СВ) 20000 м  в посл. час гроза{ливн. осадки}  9/4 600 м кучево-дожд., средняя, верхняя 
[Cb cap|Ac cast|Ci sp]
+21.5 +16.5 73 +33  1006  -1.1  742  274           
06 20.06.17 110 (В) 20000 м  гроза без осадков{ливн. осадки}  10/3 600 м кучево-дожд., средняя 
[Cb cap|Ac cuf]
+20.5 +16.2 76 +32  1006.3  0.2  742  275           
09 20.06.17 100 (В) 20000 м  {гроза, ливн. осадки}  9/0 средняя, верхняя 
[Ac cuf|Cc]
+23 +16.4 66 +35  1005.1  -1.1  742  272           
12 20.06.17 060 (СВ) 20000 м  {гроза, ливн. осадки}  10/0 средняя, верхняя 
[Ac cuf|Ci sp]
+21.9 +16 69 +33  1003.8  -1.3  741  273    +23     
15 20.06.17 110 (В) 20000 м    4/0 средняя, верхняя 
[Ac trans|Ci]
+20.8 +16.6 77 +33  1003.5  -0.4  740  274           
18 20.06.17 110 (В) 20000 м    1/0 средняя 
[Ac trans]
+17.3 +15.9 91 +30  1004.4  0.7  741  277           
21 20.06.17 тихо ()   1000 м  дымка  1/0 средняя 
[Ac trans]
+14.5 +13.4 93 +21  1003.3  -1.3  740  280           
00 21.06.17 310 (СЗ) 20000 м  гроза, ливневой дождь  10/3 600 м кучево-дожд., средняя 
[Cb cap|Ac cuf]
+17.7 +15.6 88 +28  1005.2  2.1  741  277  +14.2    0.0    сухая 
03 21.06.17 360 (С) 20000 м  {гроза, ливн. осадки}  5/0 верхняя 
[Ci fib]
+20.4 +15.6 74 +30  1004.4  -0.6  741  274           
06 21.06.17 220 (ЮЗ) 20000 м  {гроза, ливн. осадки}  3/0 верхняя 
[Cu hum|Ci sp]
+26.5 +15.9 52 +37  1004.2  0.1  741  269           
09 21.06.17 290 (З) 20000 м    8/8 600 м 
[Cu hum]
+29.4 +11.3 33 +33  1003.5  -0.6  741  267           
12 21.06.17 290 (З) 20000 м    5/5 600 м 
[Cu hum]
+29.2 +9.1 29 +29  1003.5  741  268    +29.6     
15 21.06.17 080 (В) 20000 м    1/0 верхняя 
[Ci fib]
+23.8 +14.6 56 +32  1004.7  741  272           
18 21.06.17 140 (ЮВ) 20000 м    ясно 
+21.2 +15.3 69 +31  1004.7  -0.2  741  274           
21 21.06.17 140 (ЮВ) 20000 м    5/0 верхняя 
[Ci sp]
+17.8 +15.6 87 +29  1004.4  -0.5  741  277           
00 22.06.17 210 (ЮЗ) 5-10{10}  20000 м  гроза, ливневой дождь  10/4 600 м кучево-дожд., средняя 
[Cb cap|Ac cuf]
+20 +15.9 77 +31  1006.4  2.2  743  275  +16.8    0.0    влажная 
03 22.06.17 100 (В) 3{10}  20000 м  в посл. час гроза{ливн. осадки}  9/3 600 м кучево-дожд., средняя, верхняя 
[Cb cap|Ac As|Ci sp]
+18.4 +16 86 +30  1005.9  -0.7  742  277           
06 22.06.17 180 (Ю) 20000 м  {гроза, ливн. осадки}  1/1 600 м 
[Cu med, cong]
+25.1 +14.8 53 +34  1004.4  -1.1  741  270           
09 22.06.17 250 (З) 20000 м    4/3 600 м верхняя 
[Cu hum|Ci sp]
+29.3 +11.2 33 +32  1003.2  -0.9  740  267           
12 22.06.17 270 (З) 20000 м    8/6 600 м верхняя 
[Cu hum|Ci sp]
+29.7 +12 34 +34  1003.2  740  267    +30.7     
15 22.06.17 310 (СЗ) 20000 м    3/3 600 м верхняя 
[Cu med, cong|Ci fib]
+23.2 +9.1 41 +23  1005.5  1.9  742  274           
18 22.06.17 300 (СЗ) 20000 м    1/0 верхняя 
[Ci fib]
+17.1 +10 63 +20  1006.5  0.6  742  280           
Время (UTC), дата Ветер
(°,м/с) 
Видим.   Явления Облачность Т
(°С)
Тd
(°С)
f(%) Тe
(°С)
Pmin
(гПа)
dP
(гПа)
Po
(мм)
O2
(г/м3)
Тmin Tmax R s Состояние
почвы

Для получения пояснительной информации подведите курсор к названию столбца.

ПОГОДА в Ключи - архив

Всё, что Вы хотите узнать о погоде в Ключи - удобно и подробно!

Выберите нужную дату (начиная с 1 января 2015* года) и нажмите кнопку "Найти".
Будут отображены архивные сводки погоды по пункту Ключи, начиная с указанной даты.


Отображать данные в формате CSV (для использования в таблицах Excel)


Внимание! Наш архив погоды предназначен исключительно для личного некоммерческого использования в познавательных целях. Если Вам необходимы официальные справки о состоянии погоды (для производственных, юридических, коммерческих и т.п. целей), обращайтесь в органы Росгидромета.

*Примечание: данная дата относится к архиву по метеостанциям СССР (Россия, СНГ, Балтия).
Архив по метеостанциям Зарубежной Европы и Азии (кроме Китая) хранится 10 дней, по другим регионам земного шара (Китай, Африка, Америка, Австралия, Океания) - 1 день.

Ключи - район местоположения метеостанции


Название, широта, долгота, высота метеостанции:
Ключи 52.2°ш. 79.1°д. 143 м над ур. моря [Российская Федерация]

Дополнительная информация

В oтличие oт бoльшинства пoгoдных сайтoв мы публикуем пoдрoбную метеoинфoрмацию в детальнoм прoфессиoнальнoм фoрмате.

Характеристики температуры и влажнoсти вoздуха измеряются на высoте 2 м в тени вдали oт зданий и деревьев.
Скoрoсть ветра измеряется на высoте 10 м (на урoвне рoста челoвека скoрoсть ветра ниже в 1.5-2 раза). Если метеoстанция нахoдится в гoрoде или в лесу, тo скoрoсть ветра занижена на 2-4 м/с пo сравнению с oткрытым местoм. Скoрoсть ветра над акватoриями крупных рек и oзёр, а также на вершинах хoлмoв на 2-5 м/с выше, чем в oбычных услoвиях.
Атмoсфернoе давление в разных тoчках местнoсти мoжет значительнo oтличаться oт давления на метеoстанции, в зависимoсти oт услoвий рельефа (при пoдъёме на 10 м давление пoнижается примернo на 1 мм рт.ст.).